www.pogodaiklimat.ru

Погода и климат >> Архив погоды >> Китай >> Guaizihu


ПОГОДА в Guaizihu

  • Прогноз погоды в Guaizihu
  • Монитор погоды в Guaizihu
  • Климат города

АРХИВ ПОГОДЫ в Guaizihu

Время (UTC), дата Ветер
(напр.,м/с)
 
Видим.   Явления Облачность Т
(С)
Тd
(С)
f
(%)
Тe
(С)
Тes
(С)
Комфортность P
(гПа)
Po
(гПа)
Тmin
(С)
Tmax
(С)
R
(мм)
R24
(мм)
S
(см)
18 8.12 З 2 20 км ?/? -11.8 -20.6 48 -16 -16 1030.6 1031.0 -0.1
21 8.12 З 1 21 км ?/? -11.7 -20.3 49 -14 -14 1028.9 1029.0
00 9.12 Ю 4 20 км 3/3
[]
-12.1 -20.2 51 -19 -19 1032.1 1032.0
03 9.12 З 3 18 км ясно -6.2 -19.2 35 -11 -9 1033.0 1033.0
06 9.12 З 7 20 км ясно -2.2 -18.3 28 -9 -8 1032.7 1033.0 -13.2
09 9.12 З 4 21 км ясно -1.2 -18.3 26 -6 -6 1033.1 1033.0
12 9.12 Ю 4 23 км ясно -8.1 -19.6 39 -14 -14 1036.0 1036.0
18 9.12 СЗ 2 22 км ?/? -9.3 -19.0 45 -13 -13 1034.1 1034.0 -0.5
21 9.12 В 1 22 км ?/? -11.2 -18.9 53 -13 -13 1034.6 1035.0
00 10.12 Ю 5 22 км ясно -12.2 -18.8 58 -20 -20 1037.4 1037.0
03 10.12 В 2 21 км ясно -7.5 -18.8 40 -11 -9 1036.4 1036.0
06 10.12 С 1 22 км ясно -0.9 -17.6 27 -2 +3 1033.1 1033.0 -12.6
09 10.12 В 2 22 км ?/? -0.1 -18.3 24 -3 -3 1032.1 1032.0
12 10.12 Ю 3 24 км ясно -5.2 -19.3 32 -10 -10 1033.7 1034.0
18 10.12 Ю 2 23 км ?/? -10.1 -19.8 45 -14 -14 1032.4 914.2 +0.3
21 10.12 Ю 2 23 км ?/? -11.2 -19.8 49 -16 -16 1032.5 1033.0
00 11.12 ЮЗ 1 21 км 8/8
[]
-7.7 -19.0 40 -10 -10 1033.0 1053.3
03 11.12 Ю 1 22 км 9/9
[]
-7.0 -18.9 38 -9 -8 1033.1 1033.0
06 11.12 С 1 20 км 5/5
[]
-0.9 -18.9 24 -2 +1 1030.0 1030.0 -11.7
09 11.12 СЗ 2 15 км 1/1
[]
+1.1 -18.3 22 -1 -1 1028.6 1029.0
12 11.12 Ю 4 22 км ясно -5.8 -19.2 34 -12 -12 1029.4 1029.0
18 11.12 н/о +2.0
21 11.12 З 2 17 км ?/? -8.7 -18.2 46 -13 -13 1026.6 1027.0
00 12.12 Ю 5 14 км 9/9
[]
-10.3 -17.8 54 -18 -18 1029.5 910.5
03 12.12 З 1 15 км 9/9
[]
-8.3 -18.7 43 -10 -10 1030.2 949.3
06 12.12 С 1 17 км 9/9
[]
-1.1 -17.3 28 -2 -2 1026.6 1027.0 -11.3
09 12.12 С 1 19 км 9/9
[]
-0.5 -16.8 28 -1 -1 1027.0 1027.0
12 12.12 В 4 20 км 9/9
[]
-5.7 -18.4 36 -11 -11 1029.4 1029.0
18 12.12 В 7 17 км ?/? -10.1 -20.3 43 -19 -19 1029.1 1029.0 +0.1
21 12.12 В 8 18 км ?/? -10.3 -21.3 40 -20 -20 1029.4 1029.0
00 13.12 В 7 20 км 9/9
[]
-10.8 -21.2 42 -20 -20 1032.2 1032.0
03 13.12 В 7 19 км 9/9
[]
-8.9 -20.3 39 -18 -17 1034.2 1034.0
06 13.12 В 4 21 км 10/10
[]
-6.9 -18.8 38 -13 -13 1033.3 1034.0 -11.3
09 13.12 С 1 22 км 10/10
[]
-6.3 -18.9 36 -8 -8 1034.1 1034.0
12 13.12 Ю 1 7000 м 10/10
[]
-7.1 -19.3 37 -9 -9 1035.5 1036.0
18 13.12 Ю 1 21 км ?/? -12.9 -21.6 48 -15 -15 1034.9 1035.0 -5.9
21 13.12 Ю 3 21 км ?/? -13.6 -20.9 54 -20 -20 1035.0 1035.0
00 14.12 Ю 3 21 км ясно -14.1 -21.0 56 -21 -21 1036.0 1036.2
03 14.12 З 3 22 км ясно -7.2 -19.1 38 -12 -10 1037.3 1037.0
06 14.12 З 3 19 км 5/5
[]
-2.8 -18.8 28 -7 -5 1035.8 1036.0 -14.4
09 14.12 З 3 17 км 9/9
[]
-3.1 -14.5 41 -7 -7 1038.2 1038.0
12 14.12 З 3 15 км 8/8
[]
-6.7 -14.9 52 -12 -12 1042.5 1043.0
18 14.12 З 4 18 км ?/? -10.3 -16.8 59 -17 -17 1042.8 1043.0 -1.8
21 14.12 З 2 19 км ?/? -13.8 -19.1 64 -19 -19 1044.0 1044.0
00 15.12 З 4 20 км 3/3
[]
-14.8 -20.8 60 -23 -23 1046.6 924.5
03 15.12 З 3 20 км 3/3
[]
-10.6 -20.2 45 -16 -15 1049.2 1049.0
06 15.12 З 3 20 км 1/1
[]
-5.7 -21.3 28 -10 -8 1048.2 927.1 -15.2
09 15.12 З 2 23 км ясно -5.3 -23.2 23 -9 -8 1050.7 1051.0
12 15.12 З 4 22 км ясно -10.1 -23.7 32 -17 -17 1054.6 1055.0

 

Местоположение метеостанции Guaizihu (Китай): широта 41.37 долгота 102.36 высота над уровнем моря 960 м.

В архиве по умолчанию представлена погода в Guaizihu за последнюю неделю. Архивные данные за месяц целиком и за предыдущие месяцы, начиная с января 2011 года, Вы можете получить, выбрав интересующий диапазон дат из раскрывающегося списка и нажав кнопку "Ввод!".

Внимание! Время в таблицах - всемирное. Для получения местного времени необходимо прибавить поправку, которая в Guaizihu равна 8 ч.

Смотрите также архив погоды в соседних городах и на ближайших метеорологических станциях:

Погода в Ejin Qi (Китай) (126 км)
Погода в Bayan Mod (Китай) (192 км)
Погода в Shine Usa (Монголия) (246 км)
Погода в Dalanzadgad (Монголия) (298 км)
Погода в Minqin (Китай) (311 км)
Погода в Zhangye (Китай) (317 км)
Погода в Hails (Китай) (335 км)
Погода в Jartai (Китай) (337 км)
Погода в Bogd (Монголия) (365 км)
Погода в Jiuquan (Китай) (373 км)

Пояснения к столбцам:

Ветер - указаны скорость ветра в м/с - средняя за 10 мин, порывы в срок и между сроками (в фигурных скобках) и направление, откуда дует ветер: С - северный, СВ - северо-восточный, В - восточный, ЮВ - юго-восточный, Ю - южный, ЮЗ - юго-западный, З - западный, СЗ - северо-западный.
Видимость - горизонтальная дальность видимости в метрах или километрах. При видимости от 1 до 10 км при отсутствии осадков обычно наблюдается дымка, при ухудшении видимости до 1 км и менее - туман. В сухую погоду видимость может ухудшаться дымом, пылью или мглою.
Явления - указаны атмосферные явления, наблюдавшиеся в срок или в последний час перед сроком; фигурными скобками обозначены явления, наблюдавшиеся между сроками (за 1-3 часа до срока); квадратными скобками обозначены град или гололедные отложения с указанием их диаметра в мм.
Облачность - указаны через наклонную черту общая и нижняя облачность в баллах и высота нижней границы облаков в метрах; квадратными скобками обозначены формы облаков: Ci - перистые, Cs - перисто-слоистые, Cc - перисто-кучевые, Ac - высококучевые, As - высокослоистые, Sc - слоисто-кучевые, Ns - слоисто-дождевые, Cu - кучевые, Cb - кучево-дождевые. Подробнее классификацию облаков см. в Атласе облаков (PDF).
T - Температура воздуха - температура, измеренная на высоте 2 м над землей.
Td - Температура точки росы - температура, при понижении до которой содержащийся в воздухе водяной пар достигнет насыщения.
f - Относительная влажность воздуха - влажноcть воздуха, измеренная на высоте 2 м над землей.
Te - Эффективная температура - температура, которую ощущает одетый по сезону человек в тени. Характеристика душности погоды. При расчете учитывается влияние влажности воздуха и скорости ветра на теплоощущения человека.
Tes - Эффективная температура на солнце - температура, которую ощущает человек, с поправкой на солнечный нагрев. Характеристика знойности погоды. Зависит от высоты солнца над горизонтом, облачности и скорости ветра. Ночью, в пасмурную погоду, а также при ветре 12 м/с и более поправка равна нулю.
P - Атмосферное давление - приведенное к уровню моря атмосферное давление.
Po - Атмосферное давление - измеренное на уровне метеостанции атмосферное давление.
Tmin - Минимальная температура - минимум температуры воздуха на высоте 2 м над землей.
Tmax - Максимальная температура - максимум температуры воздуха на высоте 2 м над землей.
R - Количество осадков - Количество выпавших осадков за период времени, мм. При наведении курсора мыши на число - период времени, за который выпало указанное количество осадков.
R24 - Количество осадков - Количество выпавших осадков за 24 часа, мм.
S - Снежный покров - Высота снежного покрова, см. При наведении курсора мыши на число - состояние снежного покрова и степень покрытия местности в баллах.